[[{"header":{"parameterUnit":"m.s-1","parameterCategory":1,"la1":30.2991,"la2":30.254,"lo1":-89.0895,"lo2":-89.0444,"dy":0.0017,"dx":0.0017,"nx":28,"ny":28,"refTime":"2024-12-31T03:00:00:Z","depth":0,"parameterNumber":2,"parameterNumberName":"U-component_of_WINDS"},"data":[0,0,0,0,0,0,0,0,0,0,0,0,0,0,0,0,0,0,0,0,0,0,0,0,0,0,0,0,0,0,0,0,0,0,0,0,0,0,0,0,0,0,0,0,0,0,0,0,0,0,0,0,0,0,0,0,0,0,-0.5699,-0.57,0,-0.5761,-0.5761,-0.5762,-0.5737,-0.5735,-0.5734,-0.5732,-0.5799,-0.5802,-0.5805,0,0,0,0,0,0,0,0,0,0,0,0,0,-0.5563,-0.5566,-0.5699,-0.57,-0.5701,-0.5761,-0.5762,-0.5762,-0.5737,-0.5735,-0.5733,-0.5732,-0.5798,-0.5802,-0.5806,0,0,0,0,0,0,0,0,0,0,0,0,0,-0.5623,-0.5567,-0.5699,-0.5695,-0.5696,-0.576,-0.5762,-0.5763,-0.5737,-0.5735,-0.5733,-0.5731,-0.5797,-0.5802,-0.5806,-0.588,0,0,-0.5821,-0.5823,0,0,0,0,0,0,0,0,-0.562,-0.5628,-0.5695,-0.5696,-0.5696,-0.5739,-0.5738,-0.5802,-0.5738,-0.5722,-0.5732,-0.573,-0.5781,-0.5787,-0.5804,-0.5883,-0.5886,-0.5821,-0.5824,-0.5826,-0.5827,0,0,0,0,0,0,0,-0.5616,-0.5626,-0.5724,-0.5696,-0.5697,-0.5692,-0.5698,-0.575,-0.5763,-0.5723,-0.5721,-0.5729,-0.5781,-0.5799,-0.5805,-0.5887,-0.5821,-0.5825,-0.5828,-0.583,-0.603,-0.6032,0,0,0,0,0,0,-0.5611,-0.5622,-0.5722,-0.5726,-0.5652,-0.5696,-0.5703,-0.5727,-0.5763,-0.5766,-0.573,-0.5727,-0.5792,-0.58,-0.5807,-0.5897,-0.5826,-0.583,-0.5833,-0.6027,-0.603,-0.6033,0,0,0,0,0,0,-0.5608,-0.562,-0.5719,-0.5673,-0.5686,-0.57,-0.5729,-0.573,-0.5748,-0.5768,-0.5771,-0.5746,-0.5791,-0.5801,-0.5862,-0.5898,-0.5833,-0.5837,-0.6025,-0.6028,-0.6032,-0.6075,0,0,0,0,0,0,-0.5604,-0.5619,-0.5647,-0.5674,-0.5688,-0.5772,-0.5731,-0.5733,-0.5756,-0.5752,-0.5784,-0.5787,-0.579,-0.5855,-0.5866,-0.5904,-0.5841,-0.6021,-0.6026,-0.6031,-0.6071,-0.608,-0.6088,0,0,0,0,0,-0.56,-0.5657,-0.5648,-0.5661,-0.5723,-0.5774,-0.5782,-0.5783,-0.5759,-0.5787,-0.58,-0.5786,-0.5892,-0.5861,-0.5874,-0.5914,-0.6019,-0.6025,-0.603,-0.6067,-0.6078,-0.6088,0,0,0,0,0,0,-0.5636,-0.5661,-0.5651,-0.5719,-0.5745,-0.577,-0.5806,-0.5795,-0.5829,-0.5825,-0.5825,-0.5833,-0.5896,-0.591,-0.5876,-0.5987,-0.5952,-0.596,-0.5975,-0.5986,-0.5995,-0.5991,-0.5845,0,0,0,0,0,-0.5651,-0.569,-0.571,-0.5768,-0.5781,-0.5791,-0.5814,-0.5812,-0.5839,-0.585,-0.5867,-0.5895,-0.5934,-0.5961,-0.5998,-0.6071,-0.6079,-0.6105,-0.6113,-0.612,-0.6128,-0.6169,-0.6181,-0.6051,-0.6051,-0.6051,0,0,-0.5685,-0.5703,-0.5728,-0.5776,-0.5795,-0.5837,-0.5801,-0.5846,-0.5877,-0.5857,-0.5916,-0.593,-0.596,-0.6028,-0.6059,-0.6042,-0.6165,-0.6127,-0.6133,-0.6137,-0.6176,-0.6188,-0.6199,-0.6055,-0.6054,-0.6054,0,0,-0.5767,-0.5784,-0.5834,-0.5854,-0.5883,-0.5889,-0.5901,-0.5928,-0.5936,-0.5994,-0.598,-0.6017,-0.6085,-0.6108,-0.6128,-0.6217,-0.6206,-0.6229,-0.6275,-0.6315,-0.6325,-0.6334,-0.6368,-0.6379,-0.6236,-0.6237,-0.6237,0,-0.5805,-0.5865,-0.5862,-0.5908,-0.593,-0.5912,-0.5964,-0.5984,-0.6024,-0.6041,-0.6021,-0.6105,-0.6124,-0.6198,-0.6219,-0.6236,-0.6251,-0.6227,-0.6324,-0.6333,-0.6341,-0.6373,-0.6385,-0.6239,-0.6239,-0.6239,-0.6239,0,-0.5912,-0.5954,-0.5991,-0.6029,-0.6055,-0.6104,-0.6109,-0.6136,-0.6131,-0.614,-0.62,-0.6222,-0.6264,-0.628,-0.6277,-0.6353,-0.6342,-0.6323,-0.6289,-0.6357,-0.6386,-0.6398,-0.6243,-0.6242,-0.6242,-0.6241,0,0,-0.6021,-0.6055,-0.6069,-0.6086,-0.6116,-0.6149,-0.6197,-0.6236,-0.626,-0.6288,-0.6329,-0.6386,-0.6368,-0.6391,-0.639,-0.6424,-0.6495,-0.6401,-0.6402,-0.6419,-0.6582,-0.6598,-0.6612,-0.6486,-0.6489,-0.649,-0.658,0,-0.6107,-0.619,-0.6188,-0.6265,-0.6305,-0.6287,-0.6329,-0.6353,-0.6361,-0.6397,-0.6406,-0.6447,-0.642,-0.6434,-0.6467,-0.6479,-0.6528,-0.6472,-0.6527,-0.6529,-0.6522,-0.6627,-0.6644,-0.6727,-0.6591,-0.6593,-0.6595,0,-0.6218,-0.6249,-0.633,-0.6354,-0.637,-0.6408,-0.6444,-0.6477,-0.6504,-0.6507,-0.6532,-0.6525,-0.6575,-0.6537,-0.6606,-0.6568,-0.659,-0.6599,-0.6602,-0.661,-0.6568,-0.6639,-0.6754,-0.6767,-0.6613,-0.6611,-0.661,0,-0.6292,-0.6353,-0.641,-0.6425,-0.6454,-0.6481,-0.6494,-0.6518,-0.6542,-0.6573,-0.6588,-0.6625,-0.6646,-0.6675,-0.6679,-0.665,-0.6749,-0.6711,-0.6755,-0.6755,-0.6779,-0.6778,-0.6901,-0.6789,-0.6788,-0.6788,-0.6788,0,-0.639,-0.6441,-0.6443,-0.6479,-0.6535,-0.6532,-0.6589,-0.66,-0.6621,-0.6659,-0.6645,-0.6681,-0.6682,-0.6719,-0.6721,-0.6779,-0.6788,-0.6794,-0.6794,-0.6796,-0.6796,-0.6812,-0.6808,-0.6792,-0.6791,-0.679,-0.679,0,-0.6483,-0.6486,-0.6547,-0.6569,-0.6575,-0.6616,-0.6635,-0.6669,-0.6675,-0.6723,-0.6734,-0.6745,-0.6788,-0.6793,-0.6843,-0.6845,-0.6914,-0.6908,-0.6906,-0.6905,-0.695,-0.6946,-0.709,-0.7109,-0.6982,-0.6984,-0.6985,0,-0.6546,-0.6585,-0.661,-0.6633,-0.6648,-0.6686,-0.671,-0.6708,-0.6733,-0.6765,-0.6796,-0.6836,-0.6869,-0.6938,-0.6951,-0.6989,-0.6985,-0.7032,-0.6991,-0.6992,-0.6988,-0.6987,-0.6991,-0.7042,-0.7043,-0.7044,-0.7045,0,-0.6659,-0.6658,-0.6692,-0.6726,-0.6755,-0.6782,-0.6808,-0.6828,-0.6829,-0.6858,-0.6901,-0.6926,-0.6976,-0.7018,-0.7055,-0.707,-0.7059,-0.7057,-0.707,-0.7074,-0.7072,-0.7075,-0.693,-0.7055,-0.7054,-0.7053,-0.7053,-0.7052,-0.674,-0.6774,-0.6797,-0.6835,-0.6853,-0.6877,-0.691,-0.692,-0.6955,-0.6995,-0.6991,-0.7039,-0.7064,-0.7112,-0.713,-0.7167,-0.7152,-0.717,-0.7175,-0.718,-0.7185,-0.7063,-0.7174,-0.7174,-0.7173,-0.7173,-0.7173,0,-0.6854,-0.6867,-0.6902,-0.6937,-0.6968,-0.6951,-0.6978,-0.7005,-0.7047,-0.707,-0.7102,-0.7151,-0.7191,-0.7206,-0.7245,-0.7272,-0.7268,-0.7283,-0.7282,-0.7286,-0.7196,-0.7182,-0.7286,-0.7286,-0.7286,-0.7286,-0.7286,-0.7286,-0.6916,-0.6973,-0.6975,-0.704,-0.7053,-0.7099,-0.7116,-0.7138,-0.7157,-0.7212,-0.7244,-0.7253,-0.7273,-0.7313,-0.7349,-0.7352,-0.7368,-0.7386,-0.7387,-0.7303,-0.7292,-0.7282,-0.7269,-0.7389,-0.7389,-0.7474,-0.7475,-0.7476]},{"header":{"parameterUnit":"m.s-1","parameterCategory":1,"la1":30.2991,"la2":30.254,"lo1":-89.0895,"lo2":-89.0444,"dy":0.0017,"dx":0.0017,"nx":28,"ny":28,"refTime":"2024-12-31T03:00:00:Z","depth":0,"parameterNumber":3,"parameterNumberName":"V-component_of_WINDS"},"data":[0,0,0,0,0,0,0,0,0,0,0,0,0,0,0,0,0,0,0,0,0,0,0,0,0,0,0,0,0,0,0,0,0,0,0,0,0,0,0,0,0,0,0,0,0,0,0,0,0,0,0,0,0,0,0,0,0,0,-5.8515,-5.8516,0,-5.8618,-5.8619,-5.862,-5.8529,-5.8525,-5.8521,-5.8517,-5.862,-5.8626,-5.8632,0,0,0,0,0,0,0,0,0,0,0,0,0,-5.8236,-5.8241,-5.8515,-5.8516,-5.8518,-5.8618,-5.8619,-5.8621,-5.8529,-5.8525,-5.852,-5.8516,-5.8618,-5.8625,-5.8633,0,0,0,0,0,0,0,0,0,0,0,0,0,-5.835,-5.8243,-5.8515,-5.8484,-5.8482,-5.8618,-5.8619,-5.8621,-5.853,-5.8524,-5.8519,-5.8514,-5.8616,-5.8625,-5.8634,-5.8804,0,0,-5.8662,-5.8666,0,0,0,0,0,0,0,0,-5.8343,-5.836,-5.8487,-5.8487,-5.8485,-5.8555,-5.8558,-5.8682,-5.8532,-5.8512,-5.8517,-5.8511,-5.8603,-5.8613,-5.8644,-5.8809,-5.8813,-5.8663,-5.8669,-5.8673,-5.8676,0,0,0,0,0,0,0,-5.8336,-5.8355,-5.8556,-5.8489,-5.8488,-5.8464,-5.8474,-5.8581,-5.8587,-5.8513,-5.8507,-5.852,-5.8601,-5.8636,-5.8646,-5.8815,-5.8663,-5.8671,-5.8677,-5.8681,-5.9123,-5.9129,0,0,0,0,0,0,-5.8331,-5.8349,-5.8552,-5.8559,-5.8399,-5.8474,-5.8485,-5.8538,-5.8586,-5.8588,-5.8525,-5.8516,-5.8622,-5.8635,-5.8649,-5.8852,-5.8673,-5.8682,-5.8687,-5.9117,-5.9124,-5.9131,0,0,0,0,0,0,-5.8326,-5.835,-5.8548,-5.8452,-5.8476,-5.8485,-5.8545,-5.8543,-5.8578,-5.8595,-5.8595,-5.856,-5.8618,-5.8636,-5.8766,-5.8854,-5.8686,-5.8694,-5.911,-5.9119,-5.9128,-5.9258,0,0,0,0,0,0,-5.8318,-5.8349,-5.8415,-5.8455,-5.8481,-5.8665,-5.855,-5.8549,-5.8594,-5.8583,-5.8628,-5.863,-5.8615,-5.8753,-5.8776,-5.8864,-5.8702,-5.9102,-5.9114,-5.9125,-5.9246,-5.927,-5.9292,0,0,0,0,0,-5.8308,-5.8447,-5.8418,-5.8443,-5.8564,-5.867,-5.8685,-5.8667,-5.8602,-5.8667,-5.8678,-5.8628,-5.884,-5.8767,-5.8792,-5.8884,-5.9096,-5.911,-5.9124,-5.9236,-5.9266,-5.9291,0,0,0,0,0,0,-5.8416,-5.8451,-5.842,-5.8576,-5.8621,-5.8655,-5.8737,-5.87,-5.8764,-5.875,-5.8724,-5.8735,-5.8872,-5.889,-5.8808,-5.9051,-5.8958,-5.8977,-5.9034,-5.9063,-5.9085,-5.9078,-5.8709,0,0,0,0,0,-5.8458,-5.8543,-5.8568,-5.8703,-5.8727,-5.8729,-5.8774,-5.8756,-5.8801,-5.882,-5.884,-5.8885,-5.8962,-5.9013,-5.9084,-5.9248,-5.9256,-5.9323,-5.9346,-5.9365,-5.9382,-5.9469,-5.95,-5.9176,-5.9176,-5.9176,0,0,-5.8545,-5.8575,-5.863,-5.8725,-5.8758,-5.8846,-5.8745,-5.8842,-5.8906,-5.8834,-5.8959,-5.8975,-5.9023,-5.9171,-5.9237,-5.9191,-5.9473,-5.9382,-5.9397,-5.9404,-5.9487,-5.9517,-5.9545,-5.9186,-5.9184,-5.9183,0,0,-5.8749,-5.878,-5.8896,-5.8931,-5.8982,-5.8982,-5.901,-5.9049,-5.9058,-5.9183,-5.913,-5.9205,-5.9338,-5.9375,-5.9411,-5.9628,-5.9584,-5.9652,-5.9771,-5.9857,-5.9882,-5.9905,-5.9983,-6.0011,-5.9669,-5.9669,-5.9669,0,-5.8851,-5.8982,-5.8959,-5.9061,-5.9104,-5.9043,-5.9159,-5.9194,-5.9266,-5.9297,-5.9244,-5.9409,-5.9437,-5.9592,-5.9646,-5.9676,-5.9707,-5.9647,-5.9881,-5.9903,-5.9923,-5.9997,-6.0027,-5.9677,-5.9676,-5.9675,-5.9674,0,-5.9104,-5.9196,-5.9283,-5.9355,-5.9407,-5.9516,-5.9509,-5.9565,-5.9542,-5.9547,-5.9674,-5.9706,-5.9783,-5.9818,-5.9796,-5.997,-5.994,-5.9885,-5.979,-5.9963,-6.0032,-6.006,-5.9688,-5.9685,-5.9683,-5.9681,0,0,-5.938,-5.9438,-5.947,-5.9502,-5.9554,-5.9624,-5.9728,-5.9804,-5.9853,-5.9904,-5.9991,-6.0104,-6.0053,-6.0094,-6.0076,-6.0151,-6.0321,-6.0086,-6.0087,-6.0129,-6.0515,-6.0557,-6.059,-6.0292,-6.0297,-6.0301,-6.0511,0,-5.9586,-5.977,-5.9753,-5.9927,-6.0011,-5.9954,-6.0045,-6.0086,-6.0093,-6.0164,-6.0171,-6.0253,-6.0179,-6.0203,-6.0275,-6.0285,-6.0398,-6.027,-6.0372,-6.0376,-6.0363,-6.0626,-6.0671,-6.0867,-6.0537,-6.0542,-6.0545,0,-5.9852,-5.9914,-6.0096,-6.0135,-6.017,-6.0252,-6.032,-6.0389,-6.0434,-6.0434,-6.048,-6.0448,-6.0552,-6.0455,-6.0598,-6.0511,-6.0552,-6.0563,-6.057,-6.058,-6.0472,-6.0643,-6.0929,-6.0959,-6.0587,-6.0584,-6.0581,0,-6.0036,-6.0164,-6.029,-6.0318,-6.0367,-6.0426,-6.0449,-6.0488,-6.0535,-6.0594,-6.0623,-6.0693,-6.0732,-6.0786,-6.0774,-6.0704,-6.092,-6.0822,-6.0923,-6.0923,-6.0971,-6.0969,-6.1269,-6.0996,-6.0996,-6.0995,-6.0995,0,-6.0268,-6.0383,-6.0373,-6.0451,-6.0576,-6.0555,-6.0679,-6.0694,-6.073,-6.0809,-6.0762,-6.0837,-6.0816,-6.0889,-6.088,-6.1,-6.1017,-6.1019,-6.1016,-6.1024,-6.1024,-6.1051,-6.1038,-6.1003,-6.1001,-6.1,-6.0999,0,-6.0495,-6.0493,-6.0627,-6.0662,-6.0673,-6.0764,-6.0793,-6.0866,-6.0869,-6.0969,-6.0991,-6.0996,-6.108,-6.1073,-6.1167,-6.116,-6.1309,-6.1288,-6.1295,-6.129,-6.1392,-6.1383,-6.172,-6.1764,-6.1462,-6.1465,-6.1468,0,-6.0645,-6.0731,-6.0775,-6.0825,-6.0852,-6.0933,-6.0981,-6.0962,-6.1013,-6.1071,-6.1136,-6.1216,-6.1279,-6.1416,-6.1427,-6.1498,-6.148,-6.1593,-6.149,-6.1496,-6.1482,-6.1478,-6.1486,-6.1614,-6.1617,-6.162,-6.1622,0,-6.091,-6.0905,-6.0976,-6.1047,-6.1105,-6.116,-6.121,-6.1253,-6.1239,-6.1299,-6.1384,-6.1433,-6.153,-6.1609,-6.1677,-6.1698,-6.1659,-6.1654,-6.1681,-6.1692,-6.1692,-6.1694,-6.1351,-6.1647,-6.1644,-6.1643,-6.1641,-6.164,-6.1103,-6.1178,-6.1221,-6.1301,-6.1336,-6.1384,-6.1454,-6.1466,-6.1538,-6.1615,-6.1599,-6.1696,-6.1737,-6.1824,-6.1853,-6.1927,-6.1886,-6.1925,-6.1935,-6.1945,-6.1958,-6.1679,-6.1939,-6.1938,-6.1937,-6.1937,-6.1936,0,-6.1367,-6.1392,-6.1466,-6.1537,-6.1601,-6.1557,-6.161,-6.1665,-6.1751,-6.1794,-6.1857,-6.1955,-6.2032,-6.2049,-6.2122,-6.2179,-6.2162,-6.2199,-6.2195,-6.22,-6.199,-6.1959,-6.2211,-6.2211,-6.2211,-6.2211,-6.2211,-6.2211,-6.1512,-6.1635,-6.1635,-6.1775,-6.1798,-6.1894,-6.1928,-6.1971,-6.2005,-6.2117,-6.2181,-6.2192,-6.2224,-6.2299,-6.2367,-6.237,-6.2399,-6.2444,-6.2439,-6.2243,-6.2215,-6.2189,-6.216,-6.245,-6.245,-6.2644,-6.2646,-6.2647]}]]